GFSGL_925_rhum_000.txt.gz
RH
64 66 70 76 83 46 41 39 45 51 51 47 55 59 61 63 62 60 54 56 61 64 65 69 68 70 74 76 79 76 74 79 93 80 83 74 72 67 63 56 58 56 53
72 74 72 74 71 44 44 42 52 56 57 52 57 59 60 65 64 56 54 56 57 59 61 65 65 66 71 73 79 80 78 78 90 93 87 92 84 71 66 66 66 61 63
80 74 73 72 61 46 46 42 50 54 44 52 52 56 60 59 55 52 54 53 54 56 58 62 61 67 63 65 64 72 75 78 86 99 96 94 95 86 83 76 76 69 73
79 76 74 69 60 50 47 44 46 48 44 47 53 58 58 54 53 55 53 53 54 55 59 61 56 57 58 60 64 65 65 75 84 96 99 94 95 91 92 93 83 76 82
75 78 73 67 67 70 54 55 54 55 55 57 56 58 57 52 54 56 55 54 54 57 55 53 53 51 51 55 60 62 66 74 83 98 96 93 91 89 88 85 87 82 80
79 78 78 80 82 76 85 74 68 61 61 61 61 59 56 52 53 56 56 58 55 56 55 52 51 51 49 50 61 61 61 71 81 96 92 94 90 94 90 91 85 84 80
85 85 83 84 90 77 81 78 86 66 62 60 60 59 57 54 52 56 57 56 60 57 56 57 56 52 50 51 50 56 62 72 78 95 99 99 98 90 94 96 92 91 90
91 92 90 83 81 73 65 76 84 59 56 58 59 57 53 55 53 59 61 58 62 62 64 65 62 56 52 64 61 61 66 70 69 75 82 78 80 86 100 100 100 100 96
98 95 93 86 76 77 61 59 78 69 67 61 60 59 56 52 52 60 58 61 63 59 65 66 63 63 64 64 66 75 74 70 70 69 71 76 77 80 82 99 100 96 94
100 96 93 88 83 64 67 85 78 74 75 77 79 81 84 90 66 65 66 66 66 63 64 63 69 67 63 63 73 78 78 72 71 67 70 82 96 88 77 89 99 98 96
98 96 94 93 82 91 92 86 80 74 78 78 70 56 49 61 87 86 67 70 67 69 67 69 67 61 70 78 78 75 74 74 75 81 94 95 99 98 92 78 72 100 98
97 98 100 96 92 88 84 82 73 64 59 50 49 50 47 57 98 80 73 71 70 71 72 66 58 65 67 79 77 77 78 76 77 81 93 93 98 98 84 81 74 100 100
94 94 91 86 82 79 77 76 72 65 55 47 62 55 68 95 88 78 71 71 72 72 68 63 58 56 63 83 81 78 73 72 75 81 86 85 76 74 76 78 82 100 97
87 86 83 75 73 68 68 65 65 64 58 53 66 90 90 82 80 77 79 78 76 71 67 62 60 72 84 85 76 70 67 66 68 64 62 63 66 69 72 76 100 100 100
78 79 80 78 83 76 62 62 61 58 68 74 84 76 83 83 77 79 76 73 71 67 63 68 84 91 85 77 72 67 60 58 56 55 53 57 61 60 64 73 95 100 99
78 79 75 77 75 75 77 79 74 76 91 84 85 75 77 74 71 71 69 62 58 60 68 86 90 82 76 72 70 61 54 54 54 51 48 51 56 55 63 73 89 100 100
70 64 66 56 59 78 82 78 82 86 83 75 69 66 69 66 65 60 61 61 62 72 75 80 77 71 66 61 54 51 55 51 53 48 46 48 50 51 61 72 83 96 99
48 44 47 68 76 81 86 87 85 77 78 71 68 67 65 64 64 66 68 69 72 74 73 72 66 52 49 50 49 44 40 42 50 47 45 45 46 58 68 72 75 90 99
52 56 59 70 78 88 85 87 90 80 76 74 73 72 73 73 72 72 71 71 71 70 66 60 51 54 56 57 49 39 27 45 51 47 45 46 45 51 61 66 64 72 90
76 72 67 67 72 82 91 93 92 80 77 76 77 78 80 83 80 74 70 68 68 65 60 61 61 62 64 52 37 26 29 50 49 46 44 44 43 44 57 59 62 65 75
67 62 62 69 74 74 75 80 81 84 86 87 82 80 79 78 73 73 69 67 67 67 65 61 53 51 42 36 26 41 49 51 49 46 44 42 43 43 44 55 58 62 65
62 60 66 72 78 82 87 88 92 90 90 89 86 79 73 66 63 66 70 68 66 66 63 50 43 40 37 27 34 48 50 50 48 45 42 41 42 41 41 50 52 56 59
64 65 68 69 74 84 88 85 85 83 83 86 81 74 67 60 60 57 70 70 65 64 60 45 41 36 30 17 37 48 51 50 45 42 42 41 43 42 42 48 52 53 56
69 73 75 77 81 82 81 80 78 76 79 80 79 79 72 63 59 58 68 72 70 67 54 45 39 32 16 16 31 43 48 50 46 40 41 39 42 42 41 42 49 51 52
65 61 65 74 80 80 79 78 77 79 79 79 80 83 79 69 62 59 59 65 69 67 54 45 37 34 19 18 19 26 39 47 50 44 39 36 41 42 41 43 44 49 48
53 53 53 55 60 65 68 67 64 61 59 66 74 79 80 76 68 60 56 56 62 58 48 42 35 36 28 36 36 34 24 32 49 46 39 36 40 41 41 40 39 46 48

GFSGL_925_rhum_006.txt.gz
RH
60 64 66 66 69 76 74 82 81 81 76 71 73 62 61 63 65 67 63 54 55 56 53 59 63 66 57 47 44 45 45 46 48 44 43 44 51 60 61 66 65 63 59
54 63 64 64 66 70 82 82 93 87 78 77 76 73 65 61 62 67 65 52 54 54 56 60 62 57 60 61 55 53 49 52 53 54 52 52 51 50 56 64 64 58 57
50 56 60 62 66 67 80 88 89 86 51 62 33 47 73 69 63 66 67 64 59 56 58 60 60 59 60 56 56 51 47 46 49 49 53 52 49 49 48 54 56 51 56
42 51 56 62 63 75 78 91 86 59 42 54 28 38 50 73 68 66 63 65 59 56 61 63 63 62 59 60 58 59 60 61 53 54 50 46 48 48 47 51 47 41 40
42 46 53 62 69 78 85 91 74 42 50 30 30 45 54 78 72 64 61 58 60 61 62 63 62 66 60 59 54 49 56 54 49 50 47 43 44 50 55 48 46 45 46
48 51 53 66 74 79 90 93 81 63 47 33 36 51 71 74 57 54 57 60 62 64 65 65 67 62 63 62 58 54 57 67 63 57 54 50 57 68 55 53 55 54 54
58 58 62 72 79 86 92 91 84 71 65 63 69 74 76 75 63 60 56 58 60 62 71 74 71 62 65 70 70 70 66 67 69 76 77 69 72 64 66 74 67 64 61
64 65 69 75 81 86 90 91 85 75 71 73 79 81 75 68 76 73 64 72 70 73 79 80 74 72 68 70 72 67 67 68 68 71 73 71 70 74 78 74 75 73 74
66 69 73 78 82 86 89 90 85 81 73 73 78 78 79 77 79 75 74 64 66 77 66 56 49 51 82 72 73 70 69 65 61 67 70 73 72 69 78 84 70 67 70
66 70 76 79 80 87 87 88 89 84 79 73 75 79 75 77 72 69 64 62 67 69 59 66 69 76 81 74 72 70 65 62 64 67 66 66 61 64 67 78 85 88 86
63 72 80 82 84 85 89 91 90 90 81 84 81 76 77 73 74 67 62 67 59 70 67 77 77 80 70 64 56 67 68 81 67 66 55 47 43 47 48 55 66 67 57
72 78 88 90 88 87 94 96 96 91 88 83 85 82 81 77 82 81 78 70 65 69 79 57 75 78 61 55 53 66 71 68 59 54 50 41 43 46 47 51 64 68 58
88 93 95 94 92 94 97 94 91 86 77 77 84 76 81 78 83 80 78 76 69 81 63 71 72 66 63 61 59 68 72 64 57 52 43 43 47 49 55 51 46 43 46
90 94 98 100 95 91 92 90 84 75 76 76 74 76 70 81 77 83 84 85 77 71 71 68 70 69 67 67 74 76 66 60 56 52 50 50 49 47 44 40 35 34 46
92 92 88 89 94 90 88 78 69 73 65 61 71 70 67 70 64 66 63 59 59 61 67 60 58 54 53 56 58 59 58 53 51 49 49 47 43 39 37 33 32 37 53
81 79 74 71 77 79 80 79 80 78 68 70 78 72 77 67 69 71 71 67 66 63 56 48 46 48 50 49 52 50 47 48 48 48 46 43 40 36 34 33 32 42 59
67 70 64 61 57 59 62 59 58 78 81 78 79 76 70 68 68 74 66 60 57 55 48 43 47 48 50 50 48 43 43 43 54 46 42 40 36 34 33 33 33 41 52
68 70 59 57 55 54 57 59 54 54 53 64 74 72 70 68 64 61 60 58 56 54 46 46 47 48 49 48 46 45 43 43 38 36 36 34 33 32 31 31 32 40 50
58 56 54 51 50 50 54 52 52 51 48 55 70 71 68 65 64 63 60 52 46 43 42 43 44 43 44 48 49 49 48 38 32 38 35 32 32 30 29 29 30 36 49
55 52 49 48 57 55 58 55 54 52 50 56 54 51 64 67 60 57 56 54 48 44 43 42 43 46 49 53 48 42 35 30 33 32 32 33 31 31 28 27 26 28 41
48 62 56 55 53 52 50 47 45 46 47 44 45 49 56 55 46 49 50 53 49 45 48 48 48 50 52 47 41 34 29 30 31 33 33 31 31 29 27 26 24 24 26
52 53 48 44 46 49 47 48 48 46 44 43 45 64 65 63 53 53 53 51 50 52 49 53 47 42 37 36 32 28 29 30 33 33 33 31 28 27 26 25 23 23 24
49 50 49 50 49 57 55 49 48 47 45 48 50 57 70 63 53 54 55 54 52 52 53 50 46 39 37 31 26 29 29 32 35 36 35 33 28 28 28 25 24 24 25
49 48 48 47 49 45 43 45 48 55 54 58 62 59 56 54 53 58 60 56 54 54 55 50 45 40 37 28 24 28 32 36 41 37 42 36 31 32 30 27 25 25 25
46 47 48 48 48 46 46 47 45 46 50 49 46 50 51 56 62 66 65 57 55 55 54 48 44 41 37 30 22 25 30 28 32 37 43 38 34 36 30 27 28 24 27
40 41 41 42 42 43 42 41 41 41 40 40 42 43 44 46 50 60 58 54 53 52 50 48 44 40 34 31 30 34 32 30 30 34 37 37 32 31 30 27 28 24 25

GFSGL_925_rhum_009.txt.gz
RH
60 60 64 68 70 74 70 64 64 56 61 55 68 64 58 59 62 64 62 55 57 61 60 51 52 58 55 45 40 42 39 39 41 40 42 43 52 51 51 55 58 56 55
54 59 64 65 66 68 74 70 68 68 67 66 68 67 58 60 62 65 66 58 56 57 54 56 58 55 61 64 53 49 48 46 49 53 49 49 48 48 51 52 54 52 49
48 54 59 62 66 64 71 70 77 78 76 72 70 76 63 61 60 63 63 65 62 55 54 56 58 58 60 54 56 55 49 48 48 44 44 45 48 49 47 50 50 56 54
39 42 51 60 63 64 65 73 75 83 81 76 70 78 68 67 64 65 64 65 65 63 58 56 58 60 62 64 65 64 62 59 51 48 45 50 52 48 51 46 53 50 50
35 39 46 57 60 61 62 71 78 82 86 82 71 74 74 62 62 66 59 60 67 65 57 58 61 62 60 62 63 59 60 56 49 48 47 45 43 44 53 52 57 54 52
38 40 45 56 61 63 66 74 83 87 85 80 71 69 67 56 50 56 62 58 61 60 61 61 62 63 64 57 57 63 65 67 68 63 57 54 59 62 58 67 67 57 52
41 44 46 58 64 70 75 80 87 90 85 75 72 68 66 65 61 59 55 58 57 59 64 69 69 62 58 66 70 68 66 69 69 66 75 75 76 76 72 71 63 65 63
50 50 54 58 68 74 79 87 92 88 86 79 74 64 68 67 69 64 60 60 57 57 59 64 71 70 72 69 61 61 76 73 69 72 73 75 72 69 78 73 74 74 64
55 58 59 62 69 74 82 86 87 89 86 81 77 69 75 75 72 70 70 65 69 67 66 67 72 83 68 62 60 66 73 68 68 63 60 62 65 62 64 66 62 51 49
56 59 63 67 70 72 78 88 88 87 84 78 72 73 78 78 77 73 72 76 71 65 64 78 80 64 71 72 73 74 71 68 60 57 66 64 63 61 55 59 66 59 55
53 58 65 70 73 75 80 85 88 86 84 84 77 76 76 77 77 75 75 75 61 55 69 72 74 73 76 79 73 74 70 66 71 63 56 52 46 43 36 41 62 62 56
57 62 70 74 72 80 85 87 91 89 89 84 83 80 75 81 78 79 75 82 71 73 66 62 68 77 80 68 61 57 60 62 60 52 48 45 42 35 36 44 52 49 55
65 71 76 84 83 89 88 96 94 94 88 81 79 75 77 92 96 93 88 81 72 71 72 71 76 76 66 61 60 59 59 64 56 52 47 39 36 40 45 46 44 41 41
82 88 91 89 90 92 90 91 88 87 78 70 75 85 87 84 83 85 78 81 66 68 78 70 65 62 64 66 65 67 70 62 55 52 46 43 40 40 38 36 34 31 29
78 86 88 86 88 93 88 86 83 84 73 66 62 72 66 65 71 71 69 77 70 64 62 57 60 55 50 56 59 60 61 53 49 46 44 41 38 37 36 33 31 30 30
77 77 79 78 82 87 82 80 75 70 68 61 60 62 70 65 69 75 68 63 60 60 56 49 41 39 38 40 43 46 46 45 44 45 44 41 37 36 33 31 30 30 33
61 57 57 54 55 62 56 59 65 76 63 60 61 69 71 73 74 72 67 63 59 54 48 37 37 40 41 43 43 42 40 40 50 44 37 36 34 32 30 29 29 30 34
60 58 52 44 43 46 48 47 44 53 54 64 76 74 67 65 65 62 58 56 53 50 45 37 39 40 41 42 41 40 40 39 37 34 32 31 30 29 29 28 27 28 30
59 50 46 44 42 43 43 43 42 40 40 55 68 72 72 64 61 59 56 58 39 38 36 38 39 39 38 40 42 43 45 41 34 33 36 30 29 29 27 26 25 25 26
49 47 43 42 44 41 42 40 38 38 37 57 53 54 65 66 62 62 60 50 44 40 37 40 39 41 43 45 46 43 39 30 28 30 28 29 29 28 26 24 23 22 22
41 45 43 41 41 39 40 38 36 35 34 37 44 48 56 56 45 45 44 47 48 42 42 43 43 45 47 49 45 38 30 25 26 28 29 28 28 27 25 23 22 20 20
38 43 41 38 37 40 38 36 34 33 33 35 54 53 53 49 43 42 45 49 46 47 45 48 48 43 40 35 35 32 25 25 27 29 29 29 27 25 25 24 22 21 21
41 37 37 37 42 46 43 39 38 38 38 44 56 58 57 50 46 47 52 51 49 49 48 48 47 42 36 35 30 25 24 25 29 31 33 31 28 28 29 27 24 22 23
41 40 42 44 44 42 37 39 43 44 42 42 45 51 55 53 53 51 52 53 51 51 51 50 46 40 36 37 24 23 24 29 36 33 42 35 32 31 33 28 24 25 23
41 43 42 41 40 39 37 36 39 41 42 45 53 54 57 58 56 51 54 61 59 55 52 51 45 41 43 38 26 25 26 26 26 24 35 38 35 34 29 27 26 24 23
38 38 37 37 37 37 36 35 34 38 44 47 42 51 51 49 50 51 55 59 57 54 49 45 45 44 40 34 31 28 29 25 27 24 23 36 34 32 33 27 27 24 23

GFSGL_925_rhum_015.txt.gz
RH
84 81 87 84 78 74 72 70 55 58 55 52 60 62 65 65 61 62 65 64 61 60 63 58 58 54 55 50 54 53 48 48 62 50 45 44 48 45 44 49 50 51 54
81 84 85 87 86 84 76 70 60 56 57 54 57 62 66 66 62 61 64 65 59 67 58 59 60 60 58 51 52 54 59 57 58 59 53 52 51 46 48 48 45 46 50
81 84 85 85 88 88 81 76 66 59 57 59 57 61 65 65 64 62 60 64 60 61 61 60 58 54 52 52 56 59 63 60 57 61 62 56 53 56 56 49 49 58 57
80 82 83 83 84 85 86 79 74 75 65 63 63 63 64 66 66 65 63 62 59 62 66 64 66 60 52 60 63 63 62 60 62 65 64 64 60 57 57 60 58 58 60
73 79 78 81 82 84 84 88 80 77 78 71 69 68 70 71 70 70 62 61 64 58 69 62 60 57 55 57 62 61 60 63 66 71 71 65 63 62 63 65 72 70 64
67 71 74 75 80 81 85 86 89 84 79 80 76 73 77 78 74 71 66 67 65 69 68 63 66 61 59 61 65 63 62 62 69 73 70 70 66 66 69 71 75 78 84
57 66 68 71 76 79 82 84 83 88 87 85 83 79 82 80 83 77 75 70 70 71 68 66 71 68 61 60 62 62 63 59 64 64 62 63 67 61 70 77 74 77 82
53 62 64 69 72 78 80 81 81 83 86 84 87 91 88 84 88 85 75 70 71 70 68 69 66 68 63 60 68 72 68 72 71 66 65 66 66 67 71 72 73 73 67
52 56 61 64 71 76 82 80 82 84 87 88 91 83 90 88 90 75 64 64 72 67 65 63 70 71 67 67 65 65 65 63 65 64 69 70 71 72 72 77 70 72 79
45 53 57 60 66 78 78 82 82 83 79 87 94 93 92 88 84 80 68 59 57 59 66 66 69 67 69 69 70 71 65 65 75 77 79 74 70 67 64 66 63 72 78
43 57 58 63 76 79 84 82 84 84 89 93 93 90 86 83 79 79 72 72 75 76 73 68 66 64 66 63 70 71 68 75 81 76 70 59 54 54 55 58 55 55 65
58 64 75 81 88 90 84 88 92 88 88 91 90 86 82 78 79 75 81 84 82 79 76 75 71 68 68 68 74 62 74 69 61 56 59 60 60 51 45 42 42 46 50
70 82 83 86 90 89 93 89 88 87 91 93 87 85 85 84 84 83 82 83 84 82 84 79 73 68 66 71 74 72 62 54 55 59 62 63 54 50 43 39 39 39 36
90 92 86 89 90 84 84 84 90 93 90 88 83 87 87 84 84 86 87 89 86 86 90 88 78 70 71 72 67 57 53 55 56 58 60 59 53 45 42 41 38 34 31
96 97 96 95 94 93 93 93 90 84 73 74 78 81 83 92 90 84 74 83 88 84 79 72 75 69 61 58 58 62 59 56 58 63 69 58 47 41 41 36 35 33 36
96 95 96 94 92 90 88 90 83 77 76 76 76 72 77 75 77 73 61 64 66 74 75 76 66 62 64 66 69 67 61 63 65 66 51 43 43 41 34 34 34 32 37
94 95 93 89 88 86 85 82 84 77 68 66 74 75 65 68 70 63 63 67 70 75 76 71 63 52 53 53 57 60 61 61 64 49 38 34 33 32 33 36 31 32 34
89 90 89 86 83 83 82 79 76 74 70 66 61 62 60 56 67 72 72 64 63 61 58 53 47 44 43 44 43 44 45 46 44 41 35 32 32 38 35 32 30 34 29
82 83 81 82 84 85 84 81 73 68 68 63 65 68 65 67 71 73 72 65 58 50 46 41 50 42 42 43 45 47 47 45 42 34 30 33 38 33 32 29 30 29 26
71 71 71 71 76 79 78 74 78 74 70 62 70 72 76 72 70 67 63 55 48 47 47 44 40 41 42 45 47 49 48 39 35 30 34 35 32 29 28 30 30 28 31
59 57 53 56 74 67 52 52 67 68 69 64 65 62 58 58 60 58 52 45 41 47 46 42 44 45 46 47 49 49 40 35 28 33 31 30 30 30 33 31 30 32 33
48 48 46 48 47 47 42 40 51 66 68 64 61 62 59 59 57 53 49 48 46 51 45 43 46 48 46 48 49 41 37 33 29 34 32 32 32 33 34 32 34 34 29
48 46 46 44 44 43 46 45 47 61 60 60 58 59 59 58 58 55 53 54 51 48 48 47 48 50 45 39 38 36 28 30 32 32 33 35 35 36 39 37 36 32 28
44 47 51 47 48 52 51 52 50 49 48 50 50 55 58 51 57 49 49 50 49 48 48 48 49 48 40 36 33 28 24 28 32 32 30 19 28 37 38 37 30 29 29
49 52 56 55 53 50 51 54 50 50 53 52 53 51 52 50 55 52 51 52 52 52 50 50 50 48 45 45 42 33 25 28 28 26 24 20 14 36 42 34 30 32 30
47 47 50 51 50 46 44 44 39 50 54 55 56 53 53 55 54 54 52 52 53 54 54 53 52 49 44 43 42 40 34 30 27 21 14 15 19 41 44 35 33 33 31

GFSGL_925_rhum_021.txt.gz
RH
75 76 76 75 76 76 66 62 58 58 65 68 67 69 67 69 74 69 60 54 62 62 60 62 58 57 54 53 58 56 55 54 58 52 53 47 46 47 48 52 52 51 52
68 72 76 74 79 81 72 63 59 59 67 66 70 72 67 68 74 70 64 57 58 63 61 59 58 62 65 60 61 59 57 55 56 57 53 52 53 51 52 55 53 55 57
68 72 75 76 79 81 76 66 66 62 68 67 66 68 67 69 72 70 66 60 54 57 56 54 51 62 64 62 60 63 60 58 62 68 61 61 58 56 53 53 55 53 55
70 73 76 79 79 78 76 72 74 70 70 70 71 68 70 69 68 68 68 65 60 59 58 59 54 58 61 59 59 61 62 60 65 70 73 73 70 68 64 59 58 56 57
69 75 76 79 79 82 83 77 75 77 78 73 72 74 71 70 70 70 69 67 65 66 69 67 63 58 59 60 60 61 59 62 73 80 85 79 65 59 75 76 67 65 62
70 74 76 79 81 86 89 87 84 83 80 79 78 72 75 73 68 64 64 68 69 74 74 67 66 65 60 63 66 65 67 62 69 84 78 72 63 71 74 72 80 80 88
71 73 75 80 83 87 91 93 92 90 89 85 81 79 78 72 67 65 67 73 74 81 78 74 70 69 66 62 65 68 73 72 68 71 69 56 63 72 78 83 79 84 86
71 74 77 81 82 86 92 96 96 95 93 93 87 81 75 70 69 71 72 80 85 83 80 77 76 75 71 60 66 71 70 70 73 66 65 59 70 70 80 85 89 93 92
71 74 77 83 85 87 93 95 98 98 97 98 93 83 81 86 80 80 82 90 94 89 86 86 81 79 75 68 74 72 69 74 75 71 56 61 70 76 81 80 77 86 92
70 72 76 81 85 89 90 93 95 98 98 100 94 89 87 88 81 81 85 94 98 93 86 88 85 82 81 79 78 75 74 70 70 68 65 71 78 75 70 63 62 74 82
64 68 73 81 84 87 90 93 96 100 99 100 100 100 91 85 83 90 95 96 94 92 90 86 81 80 70 67 70 76 68 62 69 72 75 68 52 54 56 55 49 48 60
56 64 72 78 84 86 91 96 100 100 98 100 100 100 97 88 87 95 91 91 89 80 72 67 69 74 73 74 78 72 69 69 71 76 65 51 55 59 53 50 43 42 42
54 60 68 77 83 84 96 98 99 100 97 99 100 100 100 100 99 91 85 90 86 78 74 76 85 77 77 78 74 76 80 72 73 66 51 51 56 57 55 47 46 42 38
56 58 64 77 81 88 93 96 97 98 99 99 99 99 100 100 95 93 81 86 81 80 88 92 88 83 79 77 73 88 85 77 68 56 57 58 63 66 57 47 43 36 36
55 59 67 75 82 97 97 99 98 99 100 99 100 100 100 100 88 72 76 79 82 87 94 94 92 89 83 80 80 80 77 69 58 56 60 63 69 70 56 44 38 37 40
64 80 85 93 100 100 100 100 100 100 99 98 93 91 84 81 73 74 80 84 87 92 98 96 93 83 74 71 65 62 62 61 62 65 66 70 68 55 45 38 38 40 37
91 100 100 100 100 99 100 96 95 83 99 83 63 81 72 74 80 87 89 87 93 96 92 89 79 70 62 61 61 64 68 65 68 69 74 64 43 38 36 39 38 36 33
100 100 100 100 100 97 92 90 92 93 94 100 87 76 78 81 88 84 68 78 99 92 77 71 68 66 66 57 56 59 60 58 63 70 50 40 36 39 40 37 35 35 37
95 94 90 85 93 98 95 96 94 94 99 97 94 88 86 77 68 62 66 61 76 78 74 74 73 67 55 55 55 50 47 46 45 44 43 34 35 37 35 32 33 35 38
73 97 99 98 94 97 91 88 90 92 93 90 91 93 97 87 83 81 73 68 69 70 67 65 56 51 51 48 46 45 46 47 47 43 36 33 37 36 32 34 36 38 37
89 98 99 98 98 95 90 83 85 89 90 84 80 85 89 83 78 74 69 64 64 63 58 49 51 48 45 43 44 47 48 45 41 36 30 33 36 33 35 37 38 38 35
92 95 94 96 95 95 92 84 80 79 81 79 74 74 80 73 72 70 69 66 61 51 46 43 44 45 42 43 46 48 46 42 38 36 31 34 34 35 37 39 38 36 32
69 82 87 92 85 86 85 83 82 78 78 79 76 72 78 70 68 68 63 58 56 45 46 44 42 43 44 45 47 47 45 44 40 35 32 34 34 34 35 39 39 34 33
66 70 84 92 91 93 90 87 89 83 80 76 70 66 64 65 63 58 53 54 54 50 45 49 44 45 46 49 49 48 46 38 34 30 33 33 31 25 22 36 40 35 35
55 57 61 68 74 76 75 77 84 84 84 76 71 67 62 56 57 56 53 52 52 50 46 49 54 48 48 47 45 42 38 42 36 30 32 32 29 25 22 32 41 35 34
60 62 59 56 54 55 60 68 70 71 72 74 67 64 63 61 58 57 56 55 56 56 58 55 50 49 50 47 44 41 42 40 34 30 29 27 24 19 21 44 43 36 34

GFSGL_925_rhum_024.txt.gz
RH
79 79 77 79 78 76 72 64 59 58 59 62 57 62 66 72 74 78 75 72 63 61 63 62 57 55 57 59 60 56 55 52 58 49 51 51 46 46 48 52 54 55 54
74 80 80 78 80 80 76 68 61 61 62 63 58 63 66 67 72 72 75 74 66 61 61 64 62 58 57 57 55 61 59 58 58 58 52 51 53 54 54 52 57 57 55
67 78 80 80 83 83 77 70 65 64 62 65 61 63 66 70 72 70 71 73 70 62 55 60 59 60 61 66 63 61 63 62 61 62 58 59 59 58 58 59 60 59 57
62 73 76 78 79 78 76 70 71 66 66 64 63 66 66 70 70 68 68 74 73 68 61 60 60 60 56 63 66 62 62 68 67 72 74 72 72 70 65 63 58 59 62
62 66 73 76 76 78 82 76 74 71 67 65 66 70 69 67 68 69 68 72 74 72 68 65 63 63 63 54 65 64 64 66 68 74 79 85 80 73 66 66 67 64 66
64 66 69 74 77 78 80 82 79 82 78 77 76 73 76 71 66 66 66 70 73 73 73 71 69 68 65 59 62 67 68 67 68 73 77 86 80 66 64 72 75 82 85
65 68 71 75 80 80 82 85 80 82 84 81 82 82 79 72 70 69 66 72 70 72 74 76 78 74 69 66 66 67 74 76 75 72 73 79 68 57 68 70 73 86 92
67 69 74 78 82 82 87 90 87 86 86 90 88 82 82 78 73 69 70 73 73 74 73 76 76 78 76 72 73 73 71 74 74 71 76 69 63 61 72 73 80 93 94
69 71 74 80 82 84 89 91 91 92 94 93 92 91 83 80 73 70 74 84 84 79 79 82 82 81 78 80 79 78 75 77 76 72 81 78 68 72 76 80 86 97 93
70 71 75 78 82 84 87 89 92 95 95 99 100 89 76 80 74 72 75 85 96 97 94 89 83 86 85 84 84 78 83 77 74 77 78 77 76 76 75 72 68 78 86
62 71 76 79 83 83 86 88 93 98 98 100 100 100 91 86 82 73 76 89 98 100 100 94 91 89 86 82 82 79 70 71 74 77 77 77 67 48 51 55 52 50 56
63 71 76 79 83 85 86 92 97 98 97 99 99 99 100 94 86 77 88 98 95 96 96 91 88 84 78 74 72 71 75 80 73 76 76 63 48 54 52 52 50 45 45
57 68 76 79 83 85 92 96 99 98 96 97 98 96 96 100 99 95 98 99 98 93 87 83 71 74 76 75 74 78 81 81 76 76 71 51 52 58 57 53 47 47 43
55 61 70 77 84 87 95 96 94 97 96 95 97 97 99 100 100 100 100 100 99 89 77 78 81 80 78 77 79 81 82 83 76 71 58 53 57 61 64 58 50 45 38
66 59 65 77 83 93 97 98 94 94 94 92 95 98 100 100 100 99 99 100 89 83 88 96 91 87 84 83 88 84 90 86 78 66 56 58 61 65 68 58 47 40 40
89 68 67 79 88 100 100 99 100 99 99 100 98 86 79 82 99 99 94 99 87 83 95 97 94 89 84 84 86 88 84 78 70 61 60 63 65 70 61 48 40 40 40
94 83 85 96 100 100 100 98 99 100 95 80 74 71 70 73 78 80 90 90 84 94 97 96 93 92 87 81 77 70 66 64 63 65 66 66 71 58 42 37 41 39 37
100 100 100 99 99 99 99 100 98 97 98 100 83 61 50 52 71 87 99 92 100 100 92 94 92 86 73 66 64 62 65 64 64 66 68 71 50 39 40 41 39 36 40
99 100 100 100 99 100 99 96 90 91 98 100 99 99 77 78 97 94 100 94 100 100 94 92 85 69 62 63 57 57 54 52 52 56 57 46 39 39 38 36 34 36 38
94 79 83 94 98 95 94 97 99 100 100 99 98 100 100 100 100 100 91 82 93 89 82 70 65 64 65 56 55 52 49 47 46 46 46 42 36 36 36 33 34 38 41
86 93 97 94 99 100 100 96 99 100 100 98 99 100 100 98 99 90 82 73 69 66 66 67 69 63 51 53 49 45 44 45 46 46 43 37 34 38 36 35 36 39 40
90 95 91 90 99 100 100 100 98 99 100 100 100 100 89 79 78 74 68 64 62 60 60 59 52 46 48 47 44 43 45 45 44 41 35 32 37 38 36 38 40 41 40
99 98 98 99 99 96 96 98 98 98 98 95 96 97 87 82 73 66 64 63 62 61 58 48 46 48 47 43 42 44 46 45 44 40 38 37 38 36 36 37 41 43 40
83 97 99 100 99 99 97 90 88 89 89 89 92 98 96 88 78 71 67 62 60 58 48 46 45 45 45 43 44 47 48 46 43 40 34 32 35 36 30 27 36 42 38
63 77 86 92 87 93 97 95 92 90 88 84 81 76 78 78 73 75 71 64 60 56 47 49 47 45 44 44 46 50 50 42 38 35 31 34 35 32 28 25 28 42 38
73 69 66 66 81 94 90 95 95 97 98 91 89 81 74 73 70 68 69 65 62 60 50 44 48 48 48 47 49 50 43 40 36 31 30 32 33 29 26 24 41 46 39

GFSGL_925_rhum_030.txt.gz
RH
64 67 69 69 70 74 71 70 71 66 65 69 68 71 68 74 79 84 76 67 83 78 70 62 69 60 46 44 48 46 45 44 39 36 43 50 63 62 51 55 54 54 49
58 66 69 69 70 69 76 72 73 73 69 72 71 73 70 69 73 81 81 67 77 80 77 75 69 63 71 56 49 50 46 44 42 44 42 50 66 64 62 66 58 49 48
56 60 63 66 67 69 74 75 74 75 74 68 72 75 74 70 71 76 78 76 73 78 76 76 74 64 67 52 58 46 52 55 55 47 43 50 49 58 65 69 64 63 57
45 52 58 66 68 70 71 75 74 76 77 75 72 76 74 70 70 70 74 75 74 74 77 75 74 72 69 72 62 63 53 50 52 53 47 43 52 53 57 49 56 62 54
43 47 54 63 67 68 71 74 75 76 77 77 75 74 75 69 66 72 72 72 73 73 75 79 77 76 73 73 68 66 59 65 46 48 50 46 48 49 56 53 57 60 51
43 48 52 62 68 71 72 76 77 77 78 78 77 76 75 68 61 62 70 68 74 75 76 77 79 78 80 75 68 59 63 65 60 46 47 46 50 56 59 60 57 50 47
48 52 56 62 70 72 74 77 79 79 78 79 78 76 76 74 63 63 64 66 71 73 76 76 77 74 83 84 80 65 60 68 64 64 62 55 53 64 71 71 67 63 61
53 54 59 64 69 74 76 79 80 80 79 81 80 78 77 76 72 66 65 70 69 68 73 76 77 72 79 86 84 86 77 74 74 67 67 68 70 74 83 75 74 75 71
54 59 61 65 67 70 78 80 80 80 80 80 78 80 81 78 75 74 70 74 70 71 72 74 77 80 81 83 86 83 84 83 76 76 70 73 80 78 77 71 67 71 61
52 57 58 62 66 69 74 77 77 78 76 73 74 77 80 81 79 78 78 69 68 66 73 78 78 79 85 87 91 87 87 86 92 88 81 83 82 80 74 79 66 59 49
48 50 56 62 68 70 74 77 78 78 70 78 73 74 77 81 81 79 80 79 60 63 57 68 72 86 87 89 84 92 90 86 90 85 85 81 83 83 83 81 72 53 42
47 50 56 65 64 62 74 78 78 78 82 77 81 78 75 80 80 81 82 82 71 58 59 57 66 82 89 92 85 89 92 90 88 78 74 72 72 68 66 65 61 55 49
51 54 58 63 68 64 74 80 77 80 69 76 67 71 61 74 79 84 83 87 84 76 56 63 78 84 86 95 90 89 96 85 73 68 67 68 63 60 54 63 71 74 73
57 58 61 64 67 69 64 70 69 64 70 64 61 61 60 68 73 82 93 90 91 86 83 87 89 92 100 100 97 96 95 73 67 66 64 62 60 54 57 56 53 54 49
60 60 62 61 67 67 69 60 61 60 57 64 62 60 61 68 80 88 96 98 97 100 100 100 100 100 100 100 100 100 92 75 74 69 64 62 57 57 52 50 49 48 48
58 52 48 45 49 58 57 65 67 64 65 67 68 60 51 59 69 93 100 97 100 99 100 100 100 100 100 100 99 97 86 82 75 68 63 60 56 52 49 53 53 50 43
66 68 52 54 45 41 45 52 51 82 75 78 79 77 69 71 84 96 99 99 100 98 97 99 97 98 100 97 98 97 85 82 75 67 63 57 51 50 52 52 52 46 41
76 76 62 63 60 59 69 71 71 85 87 89 94 97 91 89 90 95 98 100 98 89 96 92 90 94 96 98 98 91 80 74 69 66 60 52 51 52 54 49 44 40 37
56 62 62 65 80 96 98 98 98 99 100 99 98 98 100 100 99 98 99 92 95 96 96 93 94 94 93 91 84 75 69 70 69 60 55 53 53 50 46 41 38 36 33
68 73 69 62 60 65 78 90 90 90 88 89 96 95 85 89 98 99 98 96 97 98 98 92 92 96 84 76 72 66 67 63 60 58 53 51 47 43 38 38 33 30 32
58 61 66 57 61 66 65 66 69 72 79 96 99 92 92 84 97 99 100 99 96 92 93 90 92 93 82 71 67 63 58 57 56 52 48 47 43 39 36 32 29 28 26
69 66 59 56 60 67 67 70 68 69 75 88 99 100 100 99 94 96 99 96 89 90 85 83 82 83 74 66 65 58 56 50 49 44 43 41 40 39 33 30 27 26 25
67 75 82 76 72 72 70 75 86 88 89 97 100 100 99 99 97 98 97 95 93 89 84 83 76 71 66 61 60 51 45 42 42 43 42 40 38 36 33 30 27 26 26
62 63 68 75 78 79 89 96 98 99 99 100 99 97 99 98 97 97 97 94 90 81 72 66 61 54 58 57 50 43 39 40 42 43 41 39 37 37 35 32 27 26 25
59 66 77 75 75 79 86 91 85 92 99 99 96 94 82 70 76 66 63 62 63 64 58 55 52 51 53 46 42 39 39 42 43 43 46 42 42 39 36 30 28 26 24
54 60 64 68 75 84 78 92 99 99 99 100 100 98 90 89 75 68 63 59 56 52 50 46 44 46 49 46 43 42 43 44 47 46 46 43 40 36 35 31 28 25 24

GFSGL_925_rhum_033.txt.gz
RH
66 67 68 73 74 78 68 66 66 64 60 56 61 64 68 71 72 76 70 60 75 76 62 57 63 57 42 37 40 39 38 39 36 32 35 46 53 55 54 55 52 55 49
61 64 67 66 70 72 75 67 67 67 66 66 64 69 70 70 70 75 78 58 68 76 76 66 62 62 63 50 42 42 41 40 41 46 38 48 54 56 61 59 59 46 45
54 59 63 65 66 66 70 73 68 70 70 67 70 70 73 70 69 74 77 75 66 70 74 76 73 67 64 54 51 42 45 49 47 49 42 44 46 59 61 67 65 60 58
42 48 54 62 63 64 64 71 71 71 74 73 68 73 74 73 70 71 75 78 75 69 72 75 75 74 70 69 62 55 51 46 48 48 45 41 41 46 52 53 55 63 60
38 43 49 57 62 64 65 66 72 72 74 74 73 71 76 75 68 70 69 73 76 75 70 75 75 75 72 70 67 62 58 55 43 42 48 47 42 42 49 51 52 50 51
37 40 46 53 62 66 67 69 72 74 74 75 75 73 72 71 64 62 69 70 73 76 75 73 72 73 73 72 69 65 66 63 60 53 46 45 51 48 48 50 50 52 54
39 42 44 51 60 67 70 71 74 76 75 77 76 75 74 72 65 59 60 68 70 72 74 74 73 66 76 78 73 70 66 65 62 68 68 59 55 55 56 63 66 63 64
41 44 47 50 58 65 71 73 75 76 77 76 78 77 75 74 71 65 59 62 68 68 70 74 73 65 68 79 82 79 75 69 62 62 69 70 66 64 76 74 71 76 78
46 48 49 53 57 65 71 74 75 77 77 78 77 78 78 76 73 73 67 64 67 68 67 72 74 74 70 76 82 82 86 84 75 68 62 67 68 69 72 71 67 77 72
46 49 53 55 60 64 70 74 76 77 77 74 76 77 79 80 77 73 74 70 64 68 70 70 72 74 77 74 81 85 86 88 83 76 80 76 72 70 75 73 65 68 70
40 47 54 58 63 66 68 73 77 78 71 77 73 74 76 79 80 79 75 77 66 63 63 66 70 73 75 79 78 85 86 85 87 85 88 89 87 85 82 76 75 68 59
37 47 53 60 62 61 69 74 77 78 79 74 78 75 73 77 79 81 81 76 73 63 57 60 58 68 72 77 82 85 89 86 91 90 93 89 79 74 72 74 77 75 62
46 52 55 60 65 60 68 75 75 78 71 72 66 71 70 64 75 78 80 81 79 76 61 54 57 55 65 74 83 88 93 92 96 96 90 80 71 70 68 72 74 69 63
53 56 58 61 65 66 61 65 65 60 63 65 56 59 57 61 59 63 76 82 82 82 77 70 59 55 61 83 89 93 95 98 93 91 84 75 70 67 69 64 63 71 64
54 55 55 55 60 63 65 52 55 57 52 52 55 52 50 50 49 54 57 70 85 90 85 88 91 98 100 100 100 99 100 99 97 87 88 88 76 65 59 58 58 59 53
56 54 49 46 48 57 53 63 60 60 59 57 56 60 59 57 53 56 56 61 80 84 92 99 100 100 100 100 100 100 100 100 99 97 87 92 80 62 57 57 53 49 46
57 60 43 43 36 35 42 45 44 55 56 58 60 67 74 77 72 72 76 69 73 87 97 99 98 99 99 100 99 100 100 97 99 92 84 80 69 59 57 52 52 51 47
65 62 47 47 46 46 48 51 52 51 51 64 89 86 85 82 82 87 93 88 100 95 98 98 98 99 99 99 100 99 98 99 98 88 83 76 66 56 54 51 50 48 45
51 51 49 55 64 66 68 72 77 86 93 92 85 80 75 75 79 89 100 99 99 99 99 99 99 100 100 100 98 94 93 92 82 86 77 67 58 53 51 50 46 43 39
60 60 57 50 49 50 53 58 62 67 71 73 74 77 86 86 86 93 100 100 99 100 99 99 100 100 97 95 92 90 89 83 79 76 65 57 53 50 48 46 40 36 36
48 51 52 50 54 55 54 52 53 54 62 60 69 85 87 84 73 79 90 86 99 99 98 99 98 95 92 86 82 80 75 70 68 63 56 54 52 48 43 37 34 33 29
49 47 45 46 48 52 51 54 54 60 72 71 63 86 94 93 87 93 99 92 98 94 91 92 97 96 92 83 78 74 66 63 60 57 53 50 48 44 38 34 30 28 26
52 57 61 64 61 58 59 65 78 83 79 86 85 79 96 87 87 90 96 90 96 93 98 98 93 90 86 75 70 65 56 54 56 53 48 44 40 39 36 32 29 25 24
67 68 58 58 58 58 58 64 85 99 96 98 93 97 98 99 98 94 90 95 90 90 86 92 85 84 76 73 65 57 55 52 50 45 42 40 37 35 34 31 28 25 24
51 54 66 72 70 82 87 86 90 93 99 100 99 95 87 79 81 80 84 89 94 93 90 92 85 75 66 62 58 50 45 42 41 42 42 39 37 36 35 32 30 26 25
48 52 56 58 61 70 83 91 97 100 100 100 100 100 100 97 92 70 58 54 58 62 59 57 57 60 61 55 47 41 38 40 41 42 43 39 40 39 36 35 29 27 25

GFSGL_925_rhum_036.txt.gz
RH
75 78 77 79 80 75 72 64 65 55 60 48 68 67 69 74 74 76 76 71 73 72 71 63 62 49 46 42 40 40 40 38 45 37 38 41 44 44 51 51 49 52 54
72 75 76 76 77 80 75 70 69 68 58 64 55 62 71 71 75 77 79 72 70 78 70 63 67 61 48 45 51 42 40 41 42 46 40 49 46 46 46 56 57 53 54
66 71 72 73 75 75 78 75 70 69 70 64 67 66 67 72 75 77 79 81 67 78 82 74 67 68 64 48 46 48 43 43 47 46 48 47 53 56 56 53 57 59 48
56 63 67 70 71 73 73 76 74 69 72 69 70 69 73 74 75 77 78 81 81 70 78 82 80 73 67 62 52 47 47 49 45 49 52 49 46 55 57 62 65 61 61
44 56 61 65 67 68 71 71 76 75 72 75 72 72 74 76 76 76 76 79 82 79 72 75 79 81 76 68 67 58 54 47 56 55 54 52 49 48 62 56 55 54 56
40 45 53 59 63 67 68 70 72 77 77 75 78 76 73 76 74 73 74 75 80 82 81 75 76 79 80 78 71 64 57 57 56 52 54 57 54 49 50 52 54 55 60
40 44 46 54 59 64 68 69 71 73 78 78 79 79 78 75 73 71 70 72 74 77 81 80 78 78 76 78 76 70 66 65 55 51 58 54 54 50 52 54 54 60 62
41 43 47 51 57 62 68 71 72 74 76 79 80 80 79 78 74 71 69 67 72 73 76 79 79 75 75 77 80 74 71 68 68 63 60 57 58 57 59 58 61 63 67
42 45 46 52 56 62 68 72 74 76 77 79 79 81 81 80 76 75 71 68 70 72 74 76 78 79 75 73 81 85 80 76 71 68 63 70 75 66 68 69 74 76 79
45 45 47 48 54 58 64 71 75 76 78 78 79 79 80 81 79 76 75 75 70 69 71 75 74 76 78 76 76 86 90 85 83 80 69 66 71 71 72 75 71 74 74
44 46 48 51 53 57 60 68 75 78 77 79 78 78 79 79 81 80 78 79 75 68 68 69 74 73 73 77 75 81 86 87 86 81 80 80 78 71 73 73 73 68 70
30 45 50 55 59 56 64 68 74 78 80 79 81 80 78 80 79 81 82 80 78 76 68 64 64 69 72 72 75 76 82 85 91 92 88 95 89 83 83 81 79 79 70
38 47 52 57 64 59 65 72 75 79 80 80 79 78 78 76 75 78 79 82 82 82 80 73 65 63 62 69 72 74 80 88 90 93 98 98 89 87 84 85 87 78 79
49 51 56 60 66 67 65 73 72 72 77 78 73 76 70 68 71 71 68 74 77 80 81 81 78 72 70 72 71 75 83 91 91 97 99 100 98 91 90 84 84 82 81
55 58 62 62 63 69 70 62 72 70 67 68 71 69 64 62 64 66 64 67 69 72 80 86 87 85 80 82 86 92 91 97 99 97 100 100 95 92 90 82 84 85 80
59 58 57 55 57 64 67 70 62 62 64 59 58 59 60 68 67 64 63 64 64 74 88 87 88 92 91 90 96 97 98 99 99 100 100 100 100 93 95 94 89 86 75
63 60 53 53 47 60 60 60 66 76 74 73 78 83 82 84 78 76 76 75 80 80 84 90 91 95 97 95 96 95 98 100 100 100 99 90 92 97 97 95 80 69 68
50 51 48 57 57 63 70 72 67 73 72 78 79 75 71 64 64 63 62 65 95 92 86 86 92 95 99 99 100 99 99 100 100 100 90 91 99 97 90 81 73 68 57
50 50 55 62 63 62 63 63 64 68 71 69 68 66 70 64 60 66 76 83 99 100 100 99 99 99 99 99 99 100 99 99 99 100 100 100 100 94 87 75 66 58 57
58 54 50 51 56 50 52 54 60 61 60 64 66 75 74 75 67 71 76 88 94 96 99 100 90 84 99 100 99 99 100 100 100 100 100 100 96 88 82 70 57 56 55
49 50 51 51 52 52 52 52 52 55 60 63 64 74 78 86 74 86 86 90 91 98 95 97 100 99 97 100 100 100 97 99 100 99 97 93 89 76 61 57 55 50 42
47 47 48 47 51 54 55 60 63 64 67 70 65 77 80 77 73 78 84 88 91 94 93 88 87 89 83 78 88 96 98 98 96 88 80 72 67 59 54 52 50 44 40
55 53 57 59 62 63 67 77 80 83 85 81 80 82 83 83 86 85 88 89 91 92 90 98 98 98 98 99 94 91 90 88 85 80 68 60 57 54 50 45 38 36 34
68 67 68 77 77 85 84 87 96 100 100 99 99 99 87 92 88 92 97 93 98 92 89 93 93 94 94 93 93 91 86 83 78 64 57 55 52 49 43 39 36 32 30
59 61 69 73 79 84 92 97 100 100 100 100 100 100 100 98 95 91 84 88 83 88 86 87 87 90 88 85 83 79 75 67 60 55 51 47 44 42 40 37 33 30 28
50 53 55 62 70 77 85 92 98 99 100 100 100 100 100 100 100 100 100 99 94 78 74 73 74 79 77 78 66 55 54 56 51 46 43 42 39 39 36 35 34 31 29

GFSGL_925_rhum_042.txt.gz
RH
73 77 75 74 74 81 79 67 60 60 60 55 56 58 62 64 69 71 68 70 78 76 74 74 63 43 43 45 49 48 49 44 47 39 41 42 42 43 45 45 46 48 50
74 77 82 82 79 77 81 81 68 60 57 65 57 60 64 65 67 68 67 66 77 80 78 77 76 71 60 40 45 46 48 46 43 44 39 42 43 42 42 45 46 49 52
76 79 84 87 88 82 76 80 79 70 60 57 65 59 57 59 67 68 67 65 67 73 77 77 76 77 73 64 44 41 44 49 48 47 43 43 48 48 47 48 48 50 52
80 83 83 86 89 88 80 76 83 77 70 56 61 60 67 62 64 63 64 66 67 72 72 72 72 75 76 72 64 52 43 46 56 54 52 49 50 49 48 48 55 54 53
80 82 85 83 85 89 90 83 78 82 78 71 58 65 63 70 71 69 66 65 68 72 73 71 72 73 72 73 71 67 58 56 52 62 65 60 56 58 60 55 58 54 52
75 80 80 85 84 86 90 91 86 82 79 81 77 73 70 73 74 70 68 72 72 76 76 71 66 72 75 73 76 76 72 67 66 66 66 67 61 52 52 55 61 70 76
69 72 78 81 87 88 87 89 94 91 86 80 80 81 80 79 77 75 74 76 80 81 81 80 79 73 71 75 73 77 80 76 72 64 61 57 59 54 54 57 61 67 65
60 70 72 80 83 86 87 88 88 90 93 92 84 82 85 80 79 78 79 80 84 84 84 83 84 84 82 78 82 90 84 84 82 76 69 64 58 56 51 47 51 54 61
52 56 69 73 81 82 86 85 85 86 86 90 90 89 84 83 82 80 80 82 88 88 86 88 88 89 87 86 85 92 95 86 85 81 79 76 72 64 58 57 64 77 83
50 53 57 68 72 80 80 82 82 82 84 84 86 88 90 90 85 84 84 85 88 88 87 88 88 88 89 91 90 91 93 92 93 94 88 85 83 78 69 59 63 80 75
51 51 54 59 66 70 75 77 78 81 80 81 83 84 86 89 91 90 87 88 90 89 87 85 84 84 85 87 91 93 88 84 85 91 94 91 87 88 82 72 68 70 77
49 53 56 59 63 67 70 75 76 77 81 82 81 83 86 85 88 89 89 88 88 92 90 86 84 82 81 80 81 83 86 89 90 88 93 93 90 92 95 87 82 75 71
53 50 54 62 64 64 71 74 78 78 78 83 84 85 85 88 88 87 88 89 89 90 92 89 87 84 84 83 80 79 77 82 97 98 95 93 94 89 92 94 100 96 92
54 59 58 60 61 65 68 74 80 85 86 83 87 88 88 89 88 85 85 87 88 89 89 90 92 93 92 92 91 88 83 83 93 95 94 90 93 96 100 100 100 100 100
73 67 55 64 63 69 75 81 80 77 81 88 91 91 94 96 91 84 82 86 88 87 89 91 92 96 100 100 100 99 97 94 96 97 99 97 97 100 100 100 100 100 98
75 72 75 75 77 81 80 89 90 82 85 83 77 85 91 90 87 89 88 85 83 82 83 84 84 87 95 96 97 97 99 100 100 100 100 99 98 97 100 100 100 99 97
76 66 70 81 80 85 91 85 99 92 88 88 88 84 89 85 85 82 80 73 67 64 73 87 99 98 98 99 100 100 100 97 99 100 98 98 99 94 100 99 99 98 99
67 68 68 75 77 83 90 98 92 85 80 73 66 64 65 66 67 59 53 51 57 66 76 82 85 87 94 99 100 100 99 98 96 90 94 95 94 95 88 97 98 97 97
75 64 72 78 81 83 90 96 94 91 85 76 67 70 73 78 78 74 72 72 80 82 81 82 89 94 99 99 100 99 99 100 100 100 100 98 95 90 91 92 96 99 98
64 65 64 69 72 78 87 89 88 90 80 77 76 76 83 81 80 80 83 85 86 87 87 90 93 98 98 100 100 100 94 100 100 100 100 100 100 97 100 100 97 93 95
64 74 70 75 82 85 87 88 85 82 85 90 91 87 86 87 90 92 93 94 94 91 93 93 90 93 98 97 91 98 100 98 100 100 99 99 100 100 86 79 91 100 100
71 80 84 89 91 90 94 95 97 97 99 99 100 99 95 96 95 94 94 97 100 99 97 95 96 99 96 90 91 100 100 100 100 99 93 93 87 94 99 100 100 100 99
74 81 86 91 92 93 95 98 99 100 100 100 97 99 99 100 100 100 100 98 100 100 99 99 99 99 99 93 88 90 98 99 100 100 100 99 100 100 100 99 96 93 85
92 94 97 99 97 97 100 100 100 100 100 100 100 100 100 100 100 100 96 88 87 90 88 86 87 88 92 96 99 93 96 96 94 96 97 99 99 99 96 88 86 80 76
95 98 97 97 98 100 100 100 100 100 100 100 100 100 100 100 100 100 96 96 94 90 87 82 82 79 88 86 86 81 79 89 90 87 89 90 88 86 79 72 67 65 64
90 92 94 95 94 95 98 100 100 100 100 100 100 100 99 100 100 99 100 100 98 97 97 94 89 80 71 67 69 68 64 76 74 78 72 75 67 63 60 62 60 57 52

GFSGL_925_rhum_045.txt.gz
RH
75 74 74 76 74 72 67 60 59 61 61 58 53 54 56 57 62 72 73 71 72 72 72 71 66 58 55 52 50 52 54 53 54 44 42 40 44 44 41 44 46 48 50
73 74 76 77 78 76 70 65 61 61 62 60 58 56 58 58 59 67 71 74 74 75 75 77 70 72 69 58 51 51 52 52 56 53 46 41 40 42 41 42 44 44 46
68 74 76 77 79 79 79 73 68 65 65 64 66 65 57 59 62 65 67 71 71 71 69 74 74 72 71 72 72 67 50 50 55 61 54 47 43 42 43 43 44 46 45
67 71 77 80 81 77 71 73 77 72 71 69 66 61 66 63 60 62 64 70 72 70 68 66 68 73 73 68 70 71 70 63 50 53 59 58 53 48 51 51 51 48 48
70 74 77 82 82 81 78 74 73 76 71 67 71 69 61 67 66 60 60 63 70 71 69 67 66 68 67 68 71 68 70 74 73 65 66 63 64 62 60 51 50 50 48
72 75 76 81 86 87 84 84 80 79 79 77 74 70 71 67 66 64 67 66 65 68 69 65 62 64 68 68 67 67 74 75 80 79 74 69 65 65 61 58 55 64 70
75 77 80 84 87 90 90 91 89 85 83 87 84 79 77 73 68 63 64 69 72 71 69 70 72 69 66 70 69 69 71 75 81 79 79 74 69 63 60 62 62 62 61
76 79 82 86 88 89 92 96 96 92 88 87 87 88 87 84 74 70 69 72 81 80 78 76 76 75 78 77 78 83 79 76 77 79 82 80 78 73 64 61 60 65 66
71 76 80 83 87 91 91 91 92 97 96 92 88 85 85 86 82 78 78 82 88 87 86 85 84 86 84 84 87 91 91 89 91 85 80 77 76 78 76 67 64 69 75
64 69 74 78 82 86 89 89 88 91 91 94 96 94 88 83 82 80 80 82 93 95 92 91 91 90 90 91 92 93 97 95 94 96 97 92 88 84 87 80 74 78 72
53 58 67 71 75 80 84 87 88 88 90 90 90 91 92 90 87 84 82 84 89 89 90 90 91 91 90 91 92 93 93 88 89 90 91 93 99 99 93 88 87 80 84
50 52 57 62 72 76 80 83 84 87 88 88 90 91 90 90 91 88 85 86 84 91 92 91 91 89 87 87 87 87 88 89 95 98 97 95 92 97 98 96 92 85 85
57 54 53 57 61 66 75 80 85 84 84 88 88 87 87 89 88 87 85 84 85 90 90 92 91 91 90 90 90 89 88 89 99 100 99 98 96 93 94 98 98 98 92
72 70 67 68 66 66 70 75 78 83 83 81 85 88 88 87 88 89 88 89 88 89 90 91 94 97 99 99 99 99 100 98 98 100 100 98 96 98 99 100 100 100 100
71 73 76 75 78 81 79 79 80 77 79 82 82 87 90 94 88 84 85 86 83 82 86 97 98 100 99 97 93 90 94 100 100 99 100 100 100 99 98 99 100 100 99
75 74 70 77 84 86 87 97 97 92 87 84 82 83 87 89 91 93 94 94 94 93 96 98 96 93 92 94 98 98 99 100 99 98 98 100 100 98 97 97 93 98 97
70 70 68 66 86 95 98 100 93 97 96 92 92 93 97 92 91 91 94 92 92 90 87 85 87 91 89 83 87 95 99 98 98 98 99 100 100 99 97 93 97 99 94
67 72 70 67 82 98 98 96 87 85 85 84 90 89 89 86 80 81 83 78 72 71 76 80 83 85 91 98 97 96 97 94 98 98 99 100 100 100 99 98 95 95 91
69 75 80 81 83 93 100 96 88 86 79 80 76 76 78 72 70 67 66 65 76 82 84 86 92 98 97 99 99 99 99 99 98 100 100 100 100 100 100 98 96 91 99
69 73 79 86 96 99 100 100 96 90 84 81 83 87 86 83 85 88 88 90 91 91 94 93 92 92 94 97 95 91 100 98 99 100 98 99 99 96 96 89 85 97 98
70 77 77 81 91 99 100 98 95 90 97 96 96 92 90 94 100 100 100 100 99 100 100 100 99 100 100 95 89 95 97 98 99 100 98 100 98 82 87 95 94 97 97
69 75 78 84 88 94 97 99 100 100 100 100 100 100 96 99 100 100 100 99 100 100 99 99 98 96 96 98 100 99 95 97 97 99 99 98 96 99 98 99 99 100 99
76 80 86 89 93 95 99 100 100 100 100 100 100 100 99 99 99 100 100 99 98 94 91 89 87 87 88 89 96 95 90 92 94 100 100 99 100 100 100 99 100 100 100
91 94 99 100 100 100 100 100 100 99 99 99 99 99 99 100 100 100 100 99 98 94 89 87 82 80 81 79 80 83 80 79 83 92 98 99 99 99 98 97 96 92 88
98 100 100 100 100 100 100 100 100 100 100 100 100 100 100 100 100 100 100 100 98 97 98 98 95 86 76 70 68 68 66 70 84 88 89 95 96 96 92 87 85 84 80
100 100 100 100 100 100 99 100 100 100 100 100 100 100 100 100 100 100 99 99 99 99 98 97 98 99 93 82 75 67 64 63 73 68 72 80 84 83 86 79 76 74 72

GFSGL_925_rhum_048.txt.gz
RH
72 72 72 72 69 66 63 56 54 53 52 59 60 57 56 54 56 64 68 76 75 71 73 77 73 70 62 62 61 57 57 60 62 52 48 43 41 40 38 41 43 43 44
70 72 71 70 72 72 69 60 56 56 55 53 62 60 57 54 57 62 63 68 75 74 69 70 73 76 75 72 74 65 60 59 61 63 54 51 48 45 42 40 40 40 40
72 74 75 76 78 76 73 66 60 60 58 57 60 63 60 58 57 61 65 65 69 71 70 69 67 69 74 74 71 74 73 65 60 63 62 55 50 48 47 45 43 41 40
71 76 76 77 79 78 73 69 65 63 61 60 59 59 60 57 59 58 62 68 68 68 68 70 68 68 66 68 70 70 73 76 80 80 76 72 65 51 54 56 55 48 46
69 75 77 78 78 77 77 74 72 70 63 60 60 60 62 63 62 65 64 63 68 69 67 67 68 66 63 62 66 65 69 75 84 86 86 82 77 75 70 59 60 57 57
67 71 75 78 79 77 75 75 76 77 75 72 71 68 65 64 62 58 60 66 62 61 63 60 61 65 65 63 63 65 73 78 86 86 82 80 79 75 72 70 70 71 64
68 70 73 79 84 84 82 82 78 78 82 82 80 78 74 68 60 60 58 60 68 67 66 68 69 65 62 64 62 61 64 70 78 85 87 87 84 82 78 76 76 72 70
71 74 76 80 86 88 91 89 88 86 84 85 88 85 82 75 67 60 58 63 69 68 68 67 69 70 73 72 72 76 75 78 78 79 85 82 86 85 88 84 79 77 77
75 77 79 82 85 89 92 92 91 93 92 89 86 87 88 82 76 71 71 75 81 78 77 76 75 75 75 78 82 87 84 88 93 91 90 87 88 88 90 90 88 80 77
75 78 81 84 85 87 85 89 92 94 93 94 93 91 84 82 77 75 80 85 94 94 88 85 86 84 85 86 89 92 96 94 94 94 96 94 91 89 90 94 98 98 94
72 77 79 81 83 83 87 88 90 94 96 99 98 94 90 88 84 81 81 87 94 94 95 92 93 89 84 87 90 95 96 87 94 97 98 98 97 98 98 94 87 93 100
63 69 76 79 83 86 86 91 91 93 96 97 98 99 98 94 91 86 83 85 82 91 91 91 92 88 87 86 88 90 91 92 97 100 100 100 99 99 96 96 100 100 99
54 61 63 71 76 79 86 90 95 95 93 96 96 95 95 94 90 86 83 84 84 89 92 89 88 89 90 94 95 95 96 97 99 100 100 100 100 99 99 99 96 100 100
63 63 62 65 73 79 84 87 89 93 94 91 93 92 91 92 92 88 85 87 89 92 91 91 94 97 97 97 99 100 100 100 100 100 100 100 100 100 99 99 99 95 96
81 80 75 70 69 70 75 80 85 84 84 87 86 88 92 97 86 77 80 84 85 85 89 100 100 100 100 100 100 100 100 100 99 100 100 100 98 92 93 93 97 95 93
73 76 78 86 84 85 80 85 83 83 82 80 80 79 82 83 82 85 90 92 93 98 100 100 100 100 100 98 98 98 91 85 85 89 95 99 99 99 99 97 98 98 97
68 70 74 75 94 98 100 100 100 100 99 95 89 88 89 85 88 92 95 98 100 100 100 100 99 95 93 84 79 86 93 95 96 100 97 98 100 100 100 100 100 100 98
71 74 74 77 78 99 100 100 99 94 99 100 100 100 100 100 98 98 100 97 98 98 90 86 83 79 82 81 88 93 94 95 98 97 91 97 100 100 100 100 100 100 100
74 71 76 82 83 98 100 100 96 91 94 96 90 85 81 83 85 90 93 79 78 76 77 79 84 92 96 98 98 96 95 96 96 98 100 100 100 96 100 99 99 100 99
79 74 75 87 99 100 100 100 92 91 94 94 93 88 83 78 80 82 83 84 87 91 93 94 96 97 99 98 98 90 93 94 92 92 94 99 100 99 99 99 98 99 99
79 81 72 88 100 99 99 98 96 97 99 98 98 92 88 91 100 100 100 100 100 100 99 100 100 100 100 100 100 99 92 94 92 93 98 100 100 99 99 99 99 99 99
78 80 80 86 98 99 100 98 96 98 100 100 100 100 100 99 99 100 100 100 100 100 100 99 96 94 92 92 97 95 85 83 84 88 93 92 98 100 99 100 100 97 100
84 82 89 94 100 100 100 100 100 100 100 100 100 100 100 99 99 99 100 100 99 97 93 89 88 88 86 83 82 81 83 78 78 85 98 96 96 95 99 96 97 99 100
91 90 94 100 100 100 100 100 100 100 100 100 100 100 100 100 100 100 100 100 100 98 94 88 86 82 78 75 73 73 72 68 74 86 94 96 99 100 99 98 96 94 93
97 100 100 100 100 100 100 100 100 100 100 100 100 99 100 100 100 100 100 100 100 100 100 100 100 98 94 89 83 75 67 63 71 75 75 84 85 89 93 93 92 86 84
100 100 100 100 100 99 100 100 100 100 100 100 100 100 100 99 100 100 99 97 94 89 84 79 76 81 88 92 95 89 81 70 62 61 62 65 77 83 86 88 86 84 81